Total_Precipitation_Accumulation
0.12 0.21 0.24 0.24 0.22 0.18 0.14 0.12 0.21 0.25 0.37 0.44 0.46 0.57 0.74 0.87 0.86 0.82 0.66 0.57 0.58 0.54 0.62 0.69 0.69 0.78 0.75 0.73 0.78 0.91 1.09 1.19 1.29 1.29 1.27 1.26 1.27 1.26 1.24 1.33 1.37 1.44 1.49 1.50
0.16 0.19 0.24 0.27 0.25 0.18 0.13 0.11 0.16 0.24 0.37 0.49 0.56 0.65 0.71 0.64 0.58 0.55 0.49 0.38 0.37 0.48 0.54 0.56 0.55 0.60 0.56 0.61 0.74 0.88 0.98 1.07 1.23 1.34 1.34 1.29 1.26 1.26 1.25 1.30 1.36 1.43 1.43 1.48
0.25 0.24 0.25 0.34 0.33 0.24 0.15 0.14 0.20 0.32 0.48 0.64 0.54 0.54 0.59 0.55 0.54 0.54 0.49 0.34 0.29 0.35 0.43 0.47 0.50 0.51 0.60 0.73 0.85 0.95 1.07 1.16 1.29 1.35 1.40 1.40 1.34 1.40 1.37 1.41 1.49 1.48 1.43 1.41
0.31 0.42 0.51 0.37 0.30 0.29 0.28 0.26 0.27 0.40 0.42 0.55 0.56 0.61 0.71 0.67 0.63 0.51 0.47 0.37 0.32 0.32 0.35 0.42 0.48 0.56 0.70 0.96 1.15 1.15 1.26 1.34 1.44 1.51 1.50 1.51 1.52 1.54 1.60 1.67 1.69 1.66 1.59 1.49
0.46 0.60 0.51 0.44 0.32 0.36 0.40 0.54 0.55 0.63 0.60 0.54 0.55 0.64 0.69 0.58 0.51 0.51 0.44 0.40 0.39 0.36 0.42 0.51 0.55 0.59 0.78 0.99 1.20 1.30 1.33 1.39 1.49 1.55 1.61 1.69 1.74 1.70 1.74 1.80 1.76 1.71 1.68 1.71
0.58 0.73 0.72 0.61 0.47 0.46 0.57 1.01 0.83 0.76 0.78 0.65 0.60 0.72 0.76 0.70 0.62 0.56 0.51 0.49 0.49 0.48 0.56 0.68 0.74 0.78 0.91 1.03 1.15 1.31 1.37 1.48 1.63 1.80 1.83 1.89 2.03 2.09 2.01 1.93 1.82 1.86 1.86 1.86
0.73 0.79 0.85 0.73 0.67 0.68 1.07 1.35 1.02 0.86 0.83 0.79 0.87 0.87 0.82 0.73 0.72 0.67 0.57 0.56 0.54 0.55 0.64 0.79 0.89 0.99 1.11 1.24 1.33 1.32 1.38 1.52 1.75 1.91 1.99 2.04 2.18 2.26 2.25 2.22 2.18 2.13 2.07 2.07
0.87 1.06 1.21 0.85 0.81 1.19 1.44 1.21 1.20 1.16 1.07 0.96 0.93 0.87 0.80 0.72 0.71 0.65 0.62 0.66 0.66 0.68 0.81 0.96 1.09 1.13 1.20 1.26 1.29 1.31 1.35 1.48 1.61 1.76 1.79 1.87 2.08 2.19 2.26 2.29 2.26 2.19 2.12 2.00
1.15 1.27 1.17 0.98 1.06 1.21 1.32 1.47 1.40 1.28 1.24 1.08 1.03 0.92 0.81 0.71 0.67 0.64 0.62 0.67 0.70 0.76 0.95 1.13 1.28 1.34 1.39 1.28 1.33 1.37 1.43 1.55 1.68 1.76 1.83 1.92 1.97 1.96 2.04 2.13 2.13 2.05 2.04 1.97
1.30 1.36 1.28 1.14 1.00 0.93 1.06 1.17 1.15 1.13 1.10 1.05 1.02 0.95 0.84 0.71 0.62 0.60 0.59 0.55 0.60 0.69 0.79 0.90 1.09 1.25 1.34 1.37 1.41 1.46 1.52 1.56 1.63 1.74 1.77 1.80 1.91 1.98 2.05 2.16 2.26 2.17 2.06 1.97
1.51 1.42 1.31 1.33 1.21 1.08 1.14 1.20 1.12 1.05 1.00 0.97 0.93 0.89 0.75 0.68 0.62 0.59 0.57 0.55 0.59 0.67 0.70 0.77 0.85 0.95 1.04 1.13 1.25 1.32 1.38 1.44 1.50 1.53 1.61 1.68 1.73 1.82 1.83 1.91 1.91 1.89 1.84 1.82
1.78 1.55 1.39 1.39 1.30 1.17 1.20 1.16 1.20 1.24 1.20 0.97 0.85 0.87 0.81 0.72 0.63 0.61 0.60 0.60 0.63 0.66 0.66 0.71 0.75 0.89 0.99 1.08 1.22 1.36 1.46 1.49 1.43 1.40 1.45 1.50 1.53 1.52 1.50 1.43 1.40 1.37 1.38 1.38
1.40 1.26 1.23 1.23 1.22 1.15 1.15 1.07 1.04 1.07 1.06 0.95 0.87 0.82 0.84 0.78 0.70 0.63 0.58 0.57 0.61 0.66 0.66 0.67 0.71 0.81 0.90 1.00 1.12 1.25 1.34 1.39 1.36 1.35 1.41 1.41 1.43 1.46 1.48 1.41 1.29 1.21 1.19 1.17
1.20 1.13 1.10 1.07 1.06 1.06 1.07 1.01 0.88 0.83 0.85 0.84 0.83 0.83 0.84 0.83 0.74 0.71 0.69 0.64 0.61 0.61 0.61 0.63 0.70 0.75 0.82 0.92 1.03 1.10 1.15 1.21 1.29 1.37 1.42 1.47 1.51 1.55 1.63 1.70 1.63 1.45 1.28 1.18
1.24 1.13 1.02 0.85 0.86 0.92 0.91 0.85 0.75 0.70 0.77 0.86 0.78 0.72 0.72 0.64 0.59 0.60 0.59 0.59 0.59 0.60 0.65 0.67 0.72 0.76 0.83 0.95 1.04 1.04 1.04 1.06 1.08 1.15 1.22 1.30 1.32 1.38 1.47 1.57 1.61 1.51 1.36 1.22
1.32 1.17 0.97 0.80 0.83 0.90 0.87 0.83 0.72 0.63 0.62 0.67 0.67 0.59 0.55 0.53 0.52 0.52 0.54 0.57 0.65 0.69 0.73 0.77 0.84 0.81 0.87 0.96 1.04 1.07 1.01 1.01 0.99 1.00 1.01 1.02 1.04 1.11 1.20 1.31 1.37 1.31 1.21 1.09
1.30 1.21 1.03 0.87 0.81 0.81 0.78 0.77 0.67 0.59 0.52 0.52 0.54 0.51 0.49 0.50 0.49 0.50 0.52 0.55 0.61 0.65 0.71 0.79 0.85 0.85 0.92 0.99 1.02 1.04 1.00 0.96 0.94 0.93 0.91 0.91 0.93 0.98 1.02 1.06 1.11 1.07 0.99 0.86
1.19 1.09 0.96 0.87 0.78 0.76 0.76 0.71 0.65 0.61 0.57 0.54 0.50 0.48 0.50 0.55 0.64 0.66 0.64 0.63 0.62 0.61 0.60 0.65 0.73 0.80 0.91 1.03 1.07 1.04 0.93 0.84 0.78 0.77 0.80 0.83 0.85 0.90 0.95 0.95 0.92 0.87 0.80 0.64
1.04 0.98 0.90 0.86 0.84 0.82 0.80 0.74 0.68 0.64 0.57 0.53 0.53 0.55 0.58 0.63 0.71 0.73 0.70 0.72 0.80 0.83 0.72 0.64 0.68 0.68 0.77 0.94 1.06 1.07 0.96 0.84 0.76 0.71 0.70 0.71 0.74 0.82 0.87 0.83 0.75 0.70 0.64 0.60
1.04 1.08 1.05 1.01 0.95 0.92 0.85 0.76 0.71 0.67 0.59 0.54 0.54 0.57 0.63 0.66 0.73 0.79 0.78 0.75 0.78 0.86 0.86 0.78 0.67 0.61 0.64 0.79 1.00 0.99 0.93 0.87 0.77 0.67 0.66 0.70 0.72 0.77 0.79 0.78 0.72 0.67 0.64 0.61
1.07 1.17 1.15 1.03 0.95 0.86 0.78 0.72 0.69 0.69 0.65 0.63 0.64 0.67 0.72 0.74 0.73 0.81 0.89 0.81 0.70 0.75 0.83 0.81 0.70 0.60 0.59 0.71 0.91 0.95 0.90 0.84 0.74 0.63 0.60 0.63 0.67 0.73 0.77 0.77 0.72 0.66 0.63 0.64
1.19 1.25 1.15 0.96 0.87 0.79 0.70 0.65 0.63 0.60 0.60 0.65 0.70 0.75 0.89 0.95 0.89 0.84 0.77 0.74 0.72 0.81 0.85 0.77 0.69 0.59 0.52 0.58 0.69 0.80 0.79 0.73 0.66 0.59 0.53 0.53 0.59 0.67 0.69 0.68 0.66 0.62 0.60 0.61
1.10 1.08 0.99 0.81 0.70 0.61 0.53 0.53 0.53 0.51 0.52 0.61 0.73 0.88 1.09 1.11 1.04 1.05 0.89 0.67 0.67 0.77 0.78 0.73 0.64 0.55 0.49 0.49 0.56 0.64 0.66 0.65 0.61 0.52 0.44 0.45 0.49 0.53 0.55 0.52 0.53 0.54 0.50 0.46
0.87 0.82 0.71 0.58 0.52 0.50 0.52 0.54 0.52 0.50 0.53 0.59 0.65 0.81 1.08 1.24 1.06 0.82 0.75 0.72 0.70 0.68 0.65 0.64 0.58 0.50 0.48 0.45 0.47 0.54 0.59 0.62 0.58 0.52 0.44 0.44 0.45 0.46 0.49 0.48 0.47 0.43 0.38 0.39
0.81 0.70 0.59 0.53 0.54 0.59 0.62 0.63 0.63 0.62 0.65 0.69 0.67 0.71 0.87 1.09 1.10 0.82 0.65 0.60 0.61 0.60 0.58 0.61 0.62 0.58 0.49 0.42 0.41 0.49 0.55 0.58 0.58 0.54 0.49 0.48 0.45 0.48 0.48 0.46 0.44 0.41 0.40 0.41
0.78 0.71 0.63 0.57 0.56 0.63 0.70 0.78 0.88 0.90 0.97 1.06 0.97 0.87 0.91 0.95 0.88 0.76 0.64 0.55 0.53 0.55 0.53 0.57 0.62 0.64 0.55 0.46 0.46 0.50 0.53 0.59 0.59 0.56 0.53 0.51 0.47 0.45 0.46 0.44 0.44 0.43 0.40 0.38
0.80 0.74 0.71 0.67 0.64 0.68 0.78 0.92 1.07 1.15 1.27 1.41 1.40 1.16 1.05 1.01 0.91 0.80 0.71 0.63 0.60 0.59 0.56 0.54 0.54 0.56 0.57 0.55 0.51 0.50 0.54 0.62 0.62 0.61 0.59 0.51 0.46 0.44 0.42 0.39 0.37 0.37 0.35 0.32